{"data":{"norad_id":48580,"intl_designator":"2021-041AD","name":"STARLINK-2234","alt_names":[],"object_type":"PAYLOAD","status":"ACTIVE","operator":null,"country":"US","launch_date":"2021-05-15","launch_site_code":"AFETR","launch_vehicle":null,"mission":null,"orbit_class":"UNKNOWN","rcs_meters":null,"size_class":null,"mass_kg":null,"dimensions":null,"purposes":["comms"],"wikipedia_slug":null,"has_3d_model":false,"image_url":null,"decayed_at":null,"tle_current":{"epoch":"2026-09-19T14:24:47.041344Z","epoch_age_seconds":114994,"freshness":"FRESH","line1":"1 48580U 21041AD  26262.60054446  .00001804  00000+0  69874-4 0  9990","line2":"2 48580  53.1606 278.5906 0001323  85.1730 274.9422 15.31712515295353","mean_motion":15.31712515,"eccentricity":0.0001323,"inclination_deg":53.1606,"raan_deg":278.5906,"arg_perigee_deg":85.173,"mean_anomaly_deg":274.9422,"bstar":6.9874e-5,"rev_number":29535,"period_min":94.012419817566,"perigee_km":469.79658742505,"apogee_km":471.60879040673,"semimajor_km":6848.8396889159,"source":"CELESTRAK","updated_at":"2026-09-20T09:00:39.136587Z"}}}